Wind_Speed
10 10 10 9 9 10 11 11 11 11 11 11 11 11 11 11 11 11 11 12 12 12 12 13 13 13 14 14 14 14 14 14 14 15 16 16 15 16 16 16 17 17 18
10 10 10 9 10 10 11 11 12 12 12 12 12 12 12 12 12 12 13 12 12 13 13 13 13 13 14 14 14 14 14 14 14 15 15 16 16 17 17 17 17 18 19
10 10 10 10 11 11 12 12 12 13 13 13 13 13 13 12 12 13 13 13 13 14 14 14 14 14 14 15 15 15 15 15 15 16 16 17 17 17 17 17 17 18 19
11 11 11 11 12 13 13 13 13 14 14 14 14 14 14 13 13 13 14 14 15 15 14 14 15 15 16 16 15 15 15 16 16 16 17 16 17 17 17 18 19 19 20
11 11 12 12 12 13 14 14 14 15 15 15 15 15 14 14 14 15 15 15 16 16 16 15 15 16 16 16 16 16 16 16 16 15 16 16 17 17 18 19 19 21 22
12 13 13 13 14 15 15 15 15 16 16 16 15 15 15 15 15 16 16 17 17 17 17 16 16 16 17 17 17 16 16 16 16 16 16 16 17 18 18 19 20 21 22
13 14 14 14 15 15 16 16 16 16 16 16 16 16 17 17 17 17 17 17 17 17 17 17 17 17 17 17 17 17 17 17 17 17 17 17 18 19 20 21 22 22 24
15 15 15 15 16 15 16 16 17 17 17 17 18 18 18 18 19 19 18 18 18 18 18 18 18 18 17 17 18 18 18 18 19 19 19 19 20 21 22 22 23 24 25
16 16 16 16 17 17 17 17 17 18 18 19 19 19 20 20 20 20 20 20 20 19 19 19 19 19 19 19 19 20 20 20 20 20 21 21 22 22 23 23 24 25 26
17 18 18 18 18 18 18 18 19 19 20 20 21 21 21 21 21 21 21 21 21 20 20 21 21 20 21 21 21 21 21 21 22 22 22 23 23 24 24 25 26 27 28
19 20 20 20 20 20 20 21 21 21 22 22 22 22 23 23 23 23 23 23 23 22 23 23 23 22 22 22 22 23 23 22 23 23 23 24 25 25 26 26 27 28 29
22 22 22 23 23 23 23 24 24 25 25 25 25 25 24 24 24 24 25 25 25 24 24 24 23 23 23 24 24 24 24 24 24 24 25 25 26 27 27 28 29 29 30
23 24 24 25 25 25 25 26 27 27 27 26 26 26 26 26 25 25 25 26 26 26 26 25 24 24 25 26 26 25 25 25 25 26 26 27 27 28 29 29 29 30 31
25 25 25 26 26 27 28 28 29 29 28 28 27 27 27 27 26 26 26 26 26 27 26 26 25 25 25 26 26 26 27 27 27 28 28 29 29 30 30 31 31 32 32
26 27 27 28 28 29 29 29 29 29 29 29 28 29 28 28 27 26 26 27 27 27 26 26 26 26 26 26 27 27 28 29 29 30 30 30 31 31 32 32 33 33 34
29 29 29 30 30 31 31 31 31 31 30 30 30 30 29 29 28 27 27 27 27 27 27 27 27 27 28 28 28 29 30 30 31 31 32 32 32 33 34 34 34 34 35
31 31 31 32 32 32 32 32 32 31 31 31 31 31 30 30 29 29 29 29 29 29 29 28 28 29 29 30 30 30 31 31 32 32 32 33 33 34 35 35 35 35 35
32 32 32 32 32 32 32 32 33 33 33 32 31 32 31 30 29 29 30 30 31 31 31 30 30 30 31 31 31 32 32 32 33 33 33 34 34 34 35 35 35 35 34
34 33 33 33 33 33 33 33 33 33 33 32 32 32 31 31 30 30 31 31 32 32 32 32 32 32 32 32 33 33 33 33 34 34 34 35 35 35 35 35 35 35 35
36 35 34 34 34 34 34 34 35 35 34 33 32 32 32 32 32 32 32 32 33 33 33 33 33 33 33 34 34 34 34 34 34 35 35 36 35 35 35 35 35 35 35
36 35 35 35 35 35 36 37 36 36 35 34 33 33 33 34 33 33 33 33 34 34 34 34 34 34 34 34 34 34 35 35 35 35 36 35 35 34 34 34 35 35 35
36 36 36 36 36 37 37 38 37 36 35 35 35 34 34 34 34 34 34 34 35 35 35 35 35 35 34 35 35 35 36 35 35 35 35 35 34 34 34 35 35 35 36
37 37 37 37 38 38 38 39 38 37 36 37 36 35 34 35 35 35 34 35 36 36 36 36 35 35 36 36 36 35 35 35 34 34 35 35 34 34 34 35 35 36 36
37 37 37 38 37 37 38 38 37 37 37 35 35 34 34 35 35 35 35 36 36 36 36 36 35 35 36 35 35 34 34 34 34 34 34 34 34 34 35 35 35 35 35
37 37 37 37 37 38 38 37 37 36 34 34 35 34 34 35 36 36 35 35 36 36 35 35 35 35 35 34 34 33 34 34 33 33 33 33 34 34 35 35 35 35 36
37 37 37 37 37 36 36 35 34 34 34 34 34 34 35 35 36 35 35 35 35 34 34 35 35 34 34 34 33 33 34 33 33 33 33 33 33 34 34 35 35 35 35
Wind_Direction
346 346 345 345 349 349 347 346 343 342 340 339 337 333 332 331 333 335 332 329 326 322 319 317 316 315 315 316 315 313 312 311 309 308 309 310 311 310 310 309 310 310 312
340 342 344 345 344 343 342 342 343 342 339 336 335 334 334 335 332 331 331 329 325 324 322 320 318 317 316 317 315 314 312 312 310 309 309 308 309 309 310 310 310 310 311
337 337 337 341 340 339 337 336 336 338 337 334 330 331 331 331 330 330 329 329 328 324 323 323 320 318 318 316 313 311 310 310 310 309 309 308 308 310 312 312 312 313 313
330 332 331 332 334 334 334 332 331 331 332 333 330 330 328 327 325 324 325 325 325 324 322 321 319 317 318 317 314 312 311 310 310 311 311 310 310 311 311 312 312 312 312
328 329 328 328 329 330 328 327 326 328 329 330 330 329 327 325 321 319 320 322 322 322 322 321 318 316 316 316 315 314 312 311 312 313 314 313 313 313 313 313 313 314 314
322 324 325 326 327 326 324 323 324 325 325 327 328 329 327 324 322 320 319 319 319 319 319 319 319 317 314 313 314 313 313 313 314 314 314 313 313 314 315 314 315 315 315
318 319 321 323 323 322 321 321 322 323 323 323 325 323 321 322 322 321 320 319 318 317 317 318 317 318 316 314 313 313 313 313 311 311 310 310 311 313 312 312 314 315 315
313 315 316 318 320 321 321 320 320 321 322 321 320 321 321 320 321 321 321 319 317 316 316 315 315 315 314 313 312 312 312 311 311 311 310 310 311 312 313 313 314 314 315
306 309 311 314 316 316 316 317 317 317 318 319 319 317 317 317 318 318 318 316 315 314 313 312 312 312 310 310 310 309 309 309 309 310 309 309 310 310 311 311 312 313 314
301 304 307 310 312 312 312 313 314 315 316 316 316 315 315 315 315 315 315 315 314 312 311 310 309 309 308 308 308 308 308 307 307 308 308 309 308 308 308 309 311 312 312
296 299 302 305 306 308 308 308 309 311 312 313 314 314 312 312 311 312 312 311 311 309 308 306 306 306 306 305 306 306 307 307 307 307 306 306 307 307 307 308 310 310 310
293 295 297 299 301 304 304 304 305 307 308 310 310 312 311 309 308 309 309 308 309 307 305 304 305 305 305 305 304 304 305 305 305 305 305 305 305 306 306 308 308 309 310
290 292 294 295 297 298 301 303 303 304 305 306 307 307 308 308 306 307 307 307 307 306 304 302 303 304 304 304 304 304 303 304 303 304 304 304 303 304 305 305 305 306 308
288 290 291 293 294 297 299 301 302 303 304 304 304 304 304 306 305 305 307 308 308 307 305 303 302 302 303 303 303 303 303 303 303 303 303 303 304 304 304 305 305 306 307
286 288 289 291 293 295 298 300 301 302 301 301 301 302 303 303 303 303 305 306 307 307 306 303 302 301 302 304 304 303 303 303 304 303 303 302 303 304 304 303 304 306 307
285 286 287 288 290 292 295 297 299 300 300 300 301 302 302 302 301 302 303 305 306 307 306 303 301 301 301 300 301 303 304 304 304 304 303 302 302 303 304 305 305 306 306
284 285 286 287 288 290 292 294 296 297 297 298 298 300 300 300 299 300 301 302 304 305 305 303 302 302 302 301 301 301 303 304 304 304 304 303 303 303 303 305 306 306 306
282 284 285 286 287 288 291 293 295 294 295 296 296 297 298 299 298 298 300 301 303 304 304 304 303 302 302 302 302 302 302 302 304 304 305 305 305 304 304 305 305 306 307
282 282 284 286 286 287 290 291 293 294 295 295 295 295 296 296 297 298 299 300 301 302 301 302 303 303 303 302 302 302 302 302 303 304 304 304 304 304 304 304 304 304 305
281 281 282 284 285 286 288 291 293 292 292 292 292 293 293 293 295 298 299 300 301 301 300 302 302 302 302 302 302 302 302 302 303 304 304 304 303 303 304 304 303 304 304
279 279 281 282 284 287 289 291 291 293 292 290 289 291 292 292 294 295 297 298 300 300 300 301 301 301 300 301 302 302 302 302 303 303 304 305 304 303 304 304 304 304 305
276 278 280 281 284 286 289 290 290 290 291 290 289 290 292 292 293 294 294 295 298 299 300 301 302 302 301 301 301 302 303 303 302 303 305 306 305 305 304 304 303 304 304
275 277 278 281 283 285 287 288 288 289 290 290 288 288 290 291 292 293 293 293 296 299 299 300 302 302 302 302 302 302 303 303 303 303 304 304 304 305 306 305 305 306 306
275 276 278 281 283 285 286 286 286 286 289 289 287 287 290 290 291 292 294 295 296 297 299 300 301 302 303 302 302 302 303 303 303 303 303 304 304 305 305 305 306 307 308
273 275 278 281 283 285 286 285 285 285 286 287 287 288 289 290 291 292 293 295 296 296 298 300 301 302 302 302 302 302 303 303 304 304 304 304 305 306 306 306 306 307 308
273 275 277 280 282 284 285 283 282 282 283 284 286 288 290 291 292 293 294 296 298 298 298 299 300 301 302 303 303 303 303 303 304 305 306 306 306 307 307 307 308 308 308
Height
5909 5907 5906 5905 5904 5903 5902 5900 5899 5897 5896 5894 5893 5891 5890 5888 5886 5885 5883 5882 5880 5878 5877 5875 5873 5871 5870 5868 5867 5865 5864 5862 5861 5859 5858 5856 5854 5853 5851 5849 5847 5845 5843
5908 5907 5905 5904 5903 5902 5901 5899 5898 5896 5895 5893 5892 5890 5888 5887 5885 5883 5882 5880 5878 5876 5874 5872 5871 5869 5868 5866 5864 5862 5861 5859 5858 5856 5854 5853 5851 5849 5847 5845 5844 5841 5839
5907 5906 5905 5904 5903 5901 5900 5898 5897 5895 5893 5892 5890 5888 5887 5885 5883 5882 5880 5878 5876 5874 5872 5870 5868 5866 5865 5863 5861 5860 5858 5856 5855 5853 5851 5849 5847 5845 5843 5841 5839 5837 5835
5907 5906 5904 5903 5902 5900 5899 5897 5895 5893 5892 5890 5888 5886 5885 5883 5881 5880 5878 5876 5874 5872 5870 5867 5866 5864 5862 5860 5858 5856 5855 5853 5851 5849 5847 5845 5843 5841 5839 5837 5835 5833 5830
5906 5904 5903 5902 5900 5899 5897 5896 5894 5892 5890 5888 5886 5884 5883 5881 5879 5877 5875 5874 5872 5870 5867 5865 5863 5861 5859 5857 5855 5853 5851 5849 5847 5845 5843 5841 5839 5837 5836 5833 5831 5828 5825
5905 5903 5902 5900 5899 5897 5895 5893 5892 5890 5888 5886 5884 5883 5881 5879 5877 5875 5873 5871 5869 5867 5865 5863 5860 5858 5856 5854 5852 5850 5848 5846 5844 5842 5840 5838 5836 5833 5831 5829 5826 5824 5821
5903 5901 5900 5898 5897 5895 5893 5891 5890 5888 5886 5884 5882 5880 5878 5876 5874 5872 5870 5868 5865 5863 5861 5859 5857 5855 5853 5851 5848 5846 5844 5842 5840 5838 5836 5834 5831 5829 5826 5824 5821 5818 5815
5900 5899 5897 5896 5894 5892 5891 5889 5887 5885 5883 5882 5879 5877 5875 5873 5871 5869 5867 5865 5862 5860 5858 5856 5854 5852 5849 5847 5845 5843 5840 5838 5836 5834 5831 5829 5826 5824 5821 5818 5815 5812 5809
5897 5896 5895 5893 5892 5890 5888 5886 5884 5883 5881 5879 5876 5874 5872 5870 5868 5866 5863 5861 5859 5856 5854 5852 5850 5848 5845 5843 5841 5838 5836 5834 5831 5829 5826 5824 5821 5819 5816 5813 5810 5807 5803
5894 5892 5891 5890 5888 5887 5885 5883 5881 5879 5877 5875 5873 5871 5868 5866 5864 5862 5859 5857 5855 5852 5850 5847 5845 5843 5840 5838 5836 5834 5831 5829 5826 5824 5821 5819 5816 5813 5810 5807 5804 5801 5797
5889 5888 5887 5886 5884 5883 5881 5879 5877 5875 5873 5871 5869 5867 5864 5862 5859 5857 5855 5852 5850 5847 5845 5843 5840 5838 5835 5833 5830 5828 5826 5823 5821 5819 5816 5813 5810 5807 5804 5801 5797 5794 5790
5885 5884 5882 5881 5880 5878 5876 5875 5873 5871 5869 5866 5864 5862 5859 5857 5854 5852 5849 5846 5844 5842 5839 5837 5835 5832 5830 5827 5825 5822 5820 5817 5815 5812 5810 5807 5804 5801 5797 5794 5790 5787 5783
5879 5878 5877 5876 5874 5873 5871 5869 5868 5865 5863 5861 5859 5856 5854 5851 5848 5846 5843 5840 5838 5835 5833 5831 5829 5826 5824 5821 5819 5816 5813 5811 5808 5805 5803 5800 5797 5793 5790 5787 5783 5779 5775
5873 5872 5871 5870 5869 5867 5866 5864 5862 5860 5857 5855 5853 5850 5848 5845 5842 5840 5837 5834 5832 5829 5827 5824 5822 5820 5817 5815 5812 5809 5807 5804 5801 5798 5795 5792 5789 5785 5782 5779 5775 5772 5768
5867 5866 5865 5864 5862 5861 5859 5857 5855 5853 5851 5848 5846 5844 5841 5839 5836 5833 5831 5828 5825 5823 5820 5817 5815 5813 5811 5808 5805 5803 5800 5797 5794 5791 5787 5784 5781 5777 5774 5770 5767 5763 5759
5860 5859 5858 5857 5855 5854 5852 5850 5848 5846 5844 5841 5839 5837 5834 5832 5829 5826 5824 5821 5818 5816 5813 5811 5808 5806 5803 5801 5798 5795 5792 5789 5786 5782 5779 5775 5772 5768 5765 5761 5757 5753 5750
5853 5852 5851 5849 5848 5846 5845 5843 5841 5839 5837 5835 5832 5830 5827 5824 5822 5819 5817 5814 5811 5809 5806 5803 5801 5798 5795 5792 5789 5787 5784 5781 5777 5774 5770 5767 5763 5759 5755 5752 5748 5744 5740
5845 5844 5843 5841 5840 5838 5837 5835 5833 5831 5829 5827 5825 5822 5819 5817 5814 5812 5809 5806 5804 5801 5798 5795 5793 5790 5787 5784 5781 5778 5775 5771 5768 5765 5761 5758 5754 5750 5746 5742 5738 5735 5731
5837 5836 5835 5833 5832 5830 5829 5827 5825 5822 5820 5818 5816 5814 5811 5809 5806 5803 5801 5798 5795 5793 5790 5787 5784 5781 5778 5775 5772 5769 5766 5762 5759 5755 5752 5748 5744 5740 5737 5733 5729 5725 5721
5828 5826 5825 5824 5823 5821 5819 5818 5815 5813 5811 5809 5807 5805 5803 5800 5798 5795 5792 5790 5787 5784 5781 5778 5775 5772 5769 5766 5763 5759 5756 5753 5749 5746 5742 5738 5734 5731 5727 5723 5719 5716 5712
5818 5817 5816 5815 5813 5811 5810 5808 5806 5803 5802 5800 5798 5797 5794 5792 5789 5786 5784 5781 5778 5775 5772 5769 5766 5763 5760 5756 5753 5750 5747 5743 5740 5736 5732 5728 5725 5721 5718 5714 5710 5706 5702
5808 5807 5806 5805 5804 5802 5800 5798 5796 5794 5793 5791 5788 5787 5785 5782 5780 5777 5775 5772 5769 5765 5762 5759 5756 5753 5750 5747 5743 5740 5737 5733 5729 5726 5722 5719 5716 5712 5708 5705 5701 5697 5692
5798 5797 5797 5795 5794 5792 5790 5788 5786 5785 5783 5781 5778 5777 5775 5773 5770 5768 5765 5762 5759 5756 5753 5750 5746 5743 5740 5737 5733 5730 5727 5723 5720 5716 5713 5710 5706 5703 5699 5695 5691 5687 5683
5787 5787 5786 5785 5783 5781 5779 5777 5775 5774 5773 5771 5769 5767 5765 5763 5760 5758 5755 5753 5750 5747 5743 5740 5737 5734 5730 5727 5724 5720 5717 5714 5710 5707 5703 5700 5697 5693 5689 5685 5681 5677 5673
5777 5776 5775 5774 5772 5771 5769 5767 5765 5763 5762 5761 5759 5758 5755 5753 5751 5748 5745 5743 5740 5737 5734 5731 5728 5725 5721 5718 5714 5711 5708 5705 5701 5697 5694 5690 5687 5683 5680 5676 5672 5668 5664
5766 5765 5764 5763 5762 5760 5758 5756 5754 5753 5751 5751 5749 5748 5746 5743 5741 5739 5736 5733 5730 5727 5725 5722 5719 5716 5712 5709 5706 5702 5699 5696 5692 5689 5685 5681 5678 5674 5670 5667 5663 5658 5654